星链-3845 (STARLINK-3845 )
导读
STARLINK-3845是美国太空探索技术公司星链计划中的一颗卫星,于2022年5月13日发射升空,属于星链星座组网卫星,主要服务于全球高速卫星互联网项目,为偏远地区、海洋等场景提供互联网接入服务,进一步扩充了星链星座的在轨卫星规模,提升星座的覆盖能力与服务稳定性。
Basic Information
目录编号:
52541
目录名称:
STARLINK-3845
国际标识:
2022-051J
轨道中心:
EARTH
卫星名称:
星链-3845
卫星全名:
星链-3845 (STARLINK-3845 )
卫星状态:
在轨 (已飞行1575 天)
发射日期:
2022-05-13 UTC
国别 :
美国
(US)
星等 :
--
Orbit Information
| 数据来源 | 国际轨道数据 | AOE轨道数据 |
| 星历时间 | 2026-09-03T18:52:00+0800 16小时前 查看轨道信息 | 2026-09-01T02:00:00+0800 3天前 查看轨道信息 |
| 半长轴 | 6837.882km | 6837.877km |
| 偏心率 | 0.0000966 | 0.0000885 |
| 轨道倾角 | 53.161° | 53.160° |
| 近地点辐角 | 94.559° | 72.215° |
| 升交点赤经 | 45.862° | 58.521° |
| 平近点角 | 265.552° | 100.037° |
| 近地点 | 459.084km | 459.134km |
| 远地点 | 460.406km | 460.346km |
| 周期 | 93.787分钟 | 93.787分钟 |
| 每日圈数 | 15.35396 | 15.353977 |
Detailed Information
固有亮度:
5
最大亮度:
2.5
卫星平台:
Starlink v1.5
覆盖范围:
全球
运营商:
太空探索技术公司
运营商所在国:
美国
制造商(研发单位):
太空探索技术公司
制造商所在国:
美国
使用方式:
暂无
Satellite Introduction
星链(Starlink)计划是由太空探索技术公司(SpaceX)提出的一个巨型低轨卫星互联网星座项目,计划在2019年至2024年间在太空搭建由约1.2万颗卫星组成的“星链”网络,其中1584颗将部署在地球上空550千米处的近地轨道,并从2020年开始工作。该卫星仍在工作。
2D Orbit Map
3D Orbit Map
Orbit Altitude Analysis Chart
Orbit Inclination Analysis Chart
Orbit Comprehensive Analysis Chart
View Comprehensive ChartConjunction Data List
| Event ID | Objects | TCA | Miss Dist (km) | Collision Risk Probability | Collision Risk Index (CRI) | Action |
|---|---|---|---|---|---|---|
| CDM_260901-040605-254105-893921 |
STARLINK-3845
(52541)
STARLINK-31372
(58939) | 2026-09-01T 04:06:35+0000 |
2.905 km
极远距离 | 1.235584E-6 低风险 | 0.37 | |
| CDM_260904-101805-254106-245121 |
STARLINK-3845
(52541)
STARLINK-32720
(62451) | 2026-09-04T 10:18:16+0000 |
2.980 km
极远距离 | 1.210812E-6 低风险 | 0.37 | |
| CDM_260905-044905-254106-897721 |
STARLINK-3845
(52541)
STARLINK-37371
(68977) | 2026-09-05T 04:49:48+0000 |
2.968 km
极远距离 | 1.083206E-6 低风险 | 0.36 | |
| CDM_260902-181205-254106-476222 |
STARLINK-3845
(52541)
STARLINK-34638
(64762) | 2026-09-02T 18:12:04+0000 |
2.849 km
极远距离 | 1.037991E-6 低风险 | 0.35 | |
| CDM_260830-182005-254106-606821 |
STARLINK-3845
(52541)
STARLINK-35422
(66068) | 2026-08-30T 18:20:46+0000 |
2.968 km
极远距离 | 1.006959E-6 低风险 | 0.35 | |
| CDM_260904-204605-254106-610621 |
STARLINK-3845
(52541)
STARLINK-35584
(66106) | 2026-09-04T 20:46:30+0000 |
2.586 km
极远距离 | 9.1064E-7 极低风险 | 0.34 |

